Regional Weather Roundup
Issued by NWS

Home | Current Version | Previous Version | Text Only | Print | Product List | Glossary Off
Versions: 1 2 3 4 5 6 7 8 9 10 11 12 13 14 15 16 17 18 19 20 21 22 23 24 25 26 27 28 29 30 31 32 33 34 35 36 37 38 39 40 41 42 43 44 45 46 47 48 49 50

000
ASUS43 KDMX 040303
RWRIA

WEATHER ROUNDUP FOR IOWA
NATIONAL WEATHER SERVICE DES MOINES IA
1000 PM CDT TUE MAY 03 2016

NOTE: "FAIR" INDICATES FEW OR NO CLOUDS BELOW 12,000 FEET WITH NO
SIGNIFICANT WEATHER AND/OR OBSTRUCTIONS TO VISIBILITY.

* - THESE STATIONS ARE NOT NWS STATIONS...THUS NOT UNDER NWS
QUALITY CONTROL.  THEY ALSO DO NOT REPORT WEATHER SUCH
AS PRECIPITATION OR FOG.

IAZ001>003-012>014-020>022-031>034-043>046-040400-
   NORTHWEST IOWA

CITY           SKY/WX    TMP DP  RH WIND       PRES   REMARKS
CARROLL *      CLOUDY    61  46  59 W18       29.80S
CHEROKEE *     PTCLDY    60  45  59 NW6       29.83R
DENISON *      MOCLDY    59  45  58 W7        29.81S
LE MARS *      CLEAR     63  46  55 N10       29.86R
ORANGE CITY *  CLEAR     61  37  41 N8        29.85R
SHELDON *      CLEAR     57  36  44 N13       29.83R
SIOUX CITY     PTCLDY    60  47  61 W8        29.83S
SPENCER        CLEAR     59  33  37 N15       29.81R
STORM LAKE *   CLOUDY    59  48  67 NW14      29.83R
$$

IAZ055>058-069>071-079>083-090>094-040400-
   SOUTHWEST IOWA

CITY           SKY/WX    TMP DP  RH WIND       PRES   REMARKS
ATLANTIC *     CLEAR     59  45  58 W10       29.84F
AUDUBON *      MOCLDY    57  46  67 W7        29.83F
CLARINDA *       N/A    N/A N/A N/A MISG        N/A
COUNCIL BLFS * CLEAR     61  43  51 W8        29.87F
CRESTON *      CLEAR     55  45  67 W12       29.85F
HARLAN  *      PTCLDY    55  46  71 W10       29.87F
LAMONI         CLEAR     57  44  62 SW13      29.85F
RED OAK *      CLEAR     61  45  55 W8        29.87F
SHENANDOAH *   CLEAR     55  48  76 SW5       29.89F
$$

IAZ047>049-059>061-072>074-084-040400-
   CENTRAL IOWA

CITY           SKY/WX    TMP DP  RH WIND       PRES   REMARKS
AMES           CLOUDY    59  47  64 W13       29.76F
ANKENY *       MOCLDY    61  46  59 SW8       29.78F
BOONE *        CLOUDY    61  45  55 W13       29.77S
CHARITON *     CLEAR     57  45  62 SW8       29.82F
DES MOINES     PTCLDY    59  43  55 SW10      29.79F
GRINNELL*      CLEAR     57  45  62 SW10      29.77F
KNOXVILLE *    CLEAR     59  43  55 SW9       29.78F
MARSHALLTOWN   CLOUDY    59  45  59 W13       29.73F
NEWTON *       PTCLDY    57  46  67 SW10      29.77F
PELLA *        CLEAR     59  45  58 SW7       29.80F
PERRY *        MOCLDY    59  48  67 W13       29.79F
$$

IAZ004>006-015-016-023>025-035-036-040400-
   NORTH CENTRAL IOWA

CITY           SKY/WX    TMP DP  RH WIND       PRES   REMARKS
ALGONA *       CLEAR     61  34  36 NW17      29.77R
CLARION *      CLOUDY    61  48  63 W24       29.74S
ESTHERVILLE    CLEAR     57  33  40 N20       29.79R
FORT DODGE *   MOCLDY    61  45  55 W14G22    29.78R
MASON CITY     PTCLDY    61  40  45 NW16      29.73R
FOREST CITY *  PTCLDY    61  34  36 NW12G17   29.73R
WEBSTER CITY * CLOUDY    61  46  59 W20       29.74S
IOWA FALLS *   LGT RAIN  59  50  72 W15       29.75S
$$

IAZ007>011-017>019-026>030-037>042-050>054-066-040400-
   NORTHEAST IOWA

CITY           SKY/WX    TMP DP  RH WIND       PRES   REMARKS
CEDAR RAPIDS   CLEAR     56  46  69 SW8       29.72F
CHARLES CITY * PTCLDY    61  46  59 W18       29.68F
CLINTON *      MOCLDY    57  45  64 SW10      29.73F
DECORAH *      CLOUDY    57  48  72 VRB3G15   29.69R
DUBUQUE        PTCLDY    53  44  71 SW8       29.68F
MONTICELLO *   PTCLDY    59  45  58 SW12      29.69F
OELWEIN *      CLOUDY    61  46  59 W13       29.68F
WATERLOO       CLOUDY    60  46  59 W21G26    29.69F
$$

IAZ064-065-067-068-078-040400-
   EAST CENTRAL IOWA

CITY           SKY/WX    TMP DP  RH WIND       PRES   REMARKS
DAVENPORT      CLOUDY    59  42  53 SW14      29.74F
IOWA CITY      CLEAR     58  44  60 SW8       29.76F
MT. PLEASANT * CLOUDY    59  48  67 SW12      29.80F
MUSCATINE *    CLOUDY    61  43  51 SW14G21   29.76F
QUAD CITIES      N/A     62  41  46 SW13      29.74F
$$

IAZ062-063-075>077-085>089-095>099-040400-
   SOUTHEAST IOWA

CITY           SKY/WX    TMP DP  RH WIND       PRES   REMARKS
BURLINGTON     CLOUDY    58  45  62 SW10      29.80F
FAIRFIELD *    CLOUDY    59  45  58 SW10      29.79F
FORT MADISON * CLOUDY    59  45  58 SW9       29.82F
KEOKUK *       CLOUDY    57  45  62 SW8       29.82F
OSKALOOSA *      N/A     55  45  67 SW10      29.80F
OTTUMWA        PTCLDY    57  45  64 SW9       29.79F
WASHINGTON *   MOCLDY    59  46  63 SW13      29.78F
$$

ABBREVIATIONS USED IN REMARKS
   TC - TEMPERATURES IN CELSIUS
  WCI - WIND CHILL INDEX
   HX - HEAT INDEX
  VSB - VISIBILITY
$$





USA.gov is the U.S. government's official web portal to all federal, state and local government web resources and services.